Погода в Марина-ди-Биббоне

Италия     43°14′43″N   10°32′00″E
темп.,
°C
ветер,
м/с
пор.,
м/с
влажн.,
%
обл.,
%
осадки,
мм/ч
давл.,
гПа
погр.,
м
18 мая, ср
ср1823:00+18ссв11785 0.0 101814
02:00+17всв22775 0.0 101841
05:00+17св22760 0.0 101861
08:00+19св22610 0.0 1019124
11:00+23сз33560 0.0 1019430
14:00+23з45610 0.0 1019657
17:00+22зсз44685 0.0 1019306
20:00+22всв14699 0.0 1019140
19 мая, чт
чт1923:00+21всв48554 0.0 1022158
02:00+20всв47583 0.0 1022149
05:00+19св46590 0.0 1022142
08:00+20всв34590 0.0 1023136
11:00+24ссз22425 0.0 1024429
14:00+24зюз44465 0.0 1024563
17:00+23юз335312 0.0 1024292
20:00+21ю226345 0.0 102528
20 мая, пт
пт2023:00+19юв33699 0.0 102651
02:00+18вюв226159 0.0 102660
05:00+17в2266100 0.0 102673
08:00+19вюв126274 0.0 1027139
11:00+22ююз356814 0.0 1028444
14:00+22ююз566719 0.0 1027466
17:00+22ююз46595 0.0 1026363
20:00+21ю35654 0.0 1025128
21 мая, сб
сб2123:00+18юв33733 0.0 102598
02:00+17юв22685 0.0 102475
05:00+17вюв22645 0.0 102376
08:00+19юв12605 0.0 1022145
11:00+21юз23645 0.0 1021387
14:00+21юз346690 0.0 1020459
17:00+22зюз246478 0.0 1019409
20:00+20юз0171100 0.0 101832
22 мая, вс
вс2223:00+19в22765 0.0 101740
02:00+18всв33834 0.0 101669
05:00+18св338427 0.0 101572
08:00+20св22735 0.0 1015159
11:00+23сз336518 0.0 1014436
14:00+22з437010 0.0 1013389
17:00+22зсз23706 0.0 1012272
20:00+21з11775 0.0 101219